This demonstration page uses our WeatherBlox Daily Observations layout. Learn more.

Left ArrowRight Arrow

31.84235, -102.49876

Hourly Observations for November 2, 2015

Temp ( °F °C ) Dew Point ( °F °C ) Humidity (%) Winds ( mph kmh ) Pressure ( in mb ) Visibility ( mi km ) Precip ( " mm )
12:53 am 00:53 Clear 55 12.8 41 5 59 59 SSW 6 9 29.91 1013 10 16 0.00 0.00
1:53 am 01:53 Clear 54 12.2 41 5 62 62 SSW 7 11 29.90 1013 10 16 0.00 0.00
2:53 am 02:53 Clear 53 11.7 42 5.6 66 66 SSW 8 13 29.89 1012 10 16 0.00 0.00
3:53 am 03:53 Clear 51 10.6 42 5.6 71 71 SW 8 13 29.89 1012 10 16 0.00 0.00
4:53 am 04:53 Clear 50 10 42 5.6 74 74 SW 7 11 29.90 1012 10 16 0.00 0.00
5:53 am 05:53 Clear 50 10 42 5.6 74 74 SSW 7 11 29.90 1013 10 16 0.00 0.00
6:53 am 06:53 Clear 50 10 41 5 71 71 SW 5 7 29.92 1013 10 16 0.00 0.00
7:53 am 07:53 Sunny 52 11.1 43 6.1 72 72 SSW 5 7 29.93 1014 10 16 0.00 0.00
8:53 am 08:53 Sunny 60 15.6 44 6.7 56 56 SW 7 11 29.94 1014 10 16 0.00 0.00
9:53 am 09:53 Sunny 68 20 43 6.1 40 40 SW 10 17 29.93 1014 10 16 0.00 0.00
10:53 am 10:53 Sunny 71 21.7 42 5.6 35 35 SSW 15 24 29.92 1013 10 16 0.00 0.00
11:53 am 11:53 Sunny 75 23.9 40 4.4 28 28 SW 15 24 29.90 1013 10 16 0.00 0.00
12:53 pm 12:53 Hazy 77 25 40 4.4 26 26 SSW 13 20 29.87 1012 5 8 0.00 0.00
1:53 pm 13:53 Hazy 79 26.1 39 3.9 24 24 SW 14 22 29.84 1011 5 8 0.00 0.00
2:53 pm 14:53 Hazy 80 26.7 38 3.3 22 22 SSW 14 22 29.83 1010 3 5 0.00 0.00
3:53 pm 15:53 Hazy 80 26.7 38 3.3 22 22 SW 7 11 29.83 1010 5 8 0.00 0.00
4:53 pm 16:53 Hazy 79 26.1 37 2.8 22 22 SSW 8 13 29.83 1010 3 5 0.00 0.00
5:53 pm 17:53 Sunny 74 23.3 41 5 31 31 SSW 5 7 29.84 1011 10 16 0.00 0.00
6:53 pm 18:53 Clear 68 20 41 5 38 38 SSE 7 11 29.85 1011 10 16 0.00 0.00
7:53 pm 19:53 Clear 64 17.8 43 6.1 46 46 SSE 7 11 29.87 1011 10 16 0.00 0.00
8:53 pm 20:53 Clear 66 18.9 43 6.1 43 43 S 12 19 29.86 1011 10 16 0.00 0.00
9:53 pm 21:53 Clear 65 18.3 43 6.1 45 45 S 13 20 29.85 1011 10 16 0.00 0.00
10:53 pm 22:53 Clear 63 17.2 43 6.1 48 48 S 10 17 29.85 1011 10 16 0.00 0.00
11:53 pm 23:53 Clear 61 16.1 43 6.1 52 52 S 9 15 29.85 1011 10 16 0.00 0.00

Powered by AerisWeather